Weather Roundup
Issued by NWS Chicago, IL

Home | Current Version | Previous Version | Graphics & Text | Print | Product List | Glossary On
Versions: 1 2 3 4 5 6 7 8 9 10 11 12 13 14 15 16 17 18 19 20 21 22 23 24 25 26 27 28 29 30 31 32 33 34 35 36 37 38 39 40 41 42 43 44 45 46 47 48 49 50
311
NZUS59 KLOT 061303
HRRLOT

CHICAGO AREA WEATHER ROUNDUP
NATIONAL WEATHER SERVICE CHICAGO/ROMEOVILLE IL
700 AM CST TUE DEC 06 2016

NOTE: "FAIR" INDICATES FEW OR NO CLOUDS BELOW 12,000 FEET WITH NO
SIGNIFICANT WEATHER AND/OR OBSTRUCTIONS TO VISIBILITY.

* THESE STATIONS ARE NOT UNDER NWS QUALITY CONTROL. THEY ALSO MAY NOT
  REPORT WEATHER SUCH AS PRECIPITATION OR FOG.

ILZ005-006-012>014-019>023-061400-
NORTHEAST ILLINOIS

CITY           SKY/WX    TMP DP  RH WIND       PRES   REMARKS
OHARE          FOG       30  30 100 NW6       29.79F VSB 1/2 WCI  24
MIDWAY         MOCLDY    32  29  88 N6        29.78F FOG     WCI  26
AURORA         FOG       26  22  84 W5        29.80F VSB 1/4 WCI  20
WAUKEGAN       CLOUDY    34  33  96 CALM      29.79F FOG
DUPAGE AIRPORT FOG       30  29  96 N6        29.78F VSB 1/4 WCI  24
WHEELING       CLOUDY    32  30  92 NW3       29.80F FOG
NORTHERLY ISL    N/A     37  33  85 E8          N/A
$$

WIZ051-052-058>065-066-070>072-061400-
SOUTHEAST WISCONSIN

CITY           SKY/WX    TMP DP  RH WIND       PRES   REMARKS
MILWAUKEE      CLOUDY    39  33  79 SE6       29.80F
KENOSHA*       PTCLDY    32  30  92 CALM      29.80S FOG
RACINE*        PTCLDY    37  33  85 SE5       29.81F
WAUKESHA       MOCLDY    32  32 100 SE7       29.80F FOG     WCI  26
$$

INZ001>003-010>013-019-020-061400-
NORTHWEST INDIANA

CITY           SKY/WX    TMP DP  RH WIND       PRES   REMARKS
GARY*          MOCLDY    32  30  93 E6        29.79  WCI  26
MICHIGAN CITY* NOT AVBL
RENSSELAER*    NOT AVBL
$$

LMZ740>746-061400-
SOUTHERN LAKE MICHIGAN

STATION/POSITION TIME  SKY/WX   TEMP WIND        PRES    VSBY
                                AIR  DIR/SP/G
                 (UTC)          (F)  (DEG/KT/KT) (MB)    (MI)
HARRISON CRIB    1240            40  130/ 10/ 12   N/A
BURNHAM HARBOR   1300            37  110/  6/ 10   N/A
CALUMET HARBOR   1230            37   90/  6/  9 1008.4F
BURNS HARBOR     1140            33   80/  6/  9 1009.8
MICHIGAN CITY    NOT AVBL
$$

ABBREVIATIONS USED IN REMARKS
   TC - TEMPERATURE IN CELSIUS
  WCI - WIND CHILL INDEX
   HX - HEAT INDEX
  VSB - VISIBILITY
$$




USA.gov is the U.S. government's official web portal to all federal, state and local government web resources and services.